CQ0XCH-11 Weather Reports


time (UTC)temp
C
wind
direction
speed
KPH
gust
KPH
rain 1hr
cm
rain 24hr
cm
rain mn
cm
humidity
%
barometer
mb
20260508100957 23 180 0.0 12.9 0.00 0.00 0.00 28 989.7
20260508100545 23 138 4.8 9.7 0.00 0.00 0.00 28 989.7
20260508100327 23 130 4.8 11.3 0.00 0.00 0.00 28 989.6
20260508100157 23 149 4.8 11.3 0.00 0.00 0.00 27 989.7
20260508095521 23 167 4.8 6.4 0.00 0.00 0.00 26 989.8
20260508095318 23 123 1.6 8.0 0.00 0.00 0.00 27 989.8
20260508095123 23 228 4.8 8.0 0.00 0.00 0.00 27 989.9
20260508095000 23 240 1.6 8.0 0.00 0.00 0.00 27 989.8
20260508094712 23 253 3.2 4.8 0.00 0.00 0.00 27 989.8
20260508094525 23 133 3.2 4.8 0.00 0.00 0.00 28 989.9
20260508094257 23 231 1.6 4.8 0.00 0.00 0.00 28 989.8
20260508094120 23 173 4.8 6.4 0.00 0.00 0.00 27 989.8
20260508093858 23 138 1.6 6.4 0.00 0.00 0.00 26 989.8
20260508093655 24 127 1.6 6.4 0.00 0.00 0.00 27 989.8
20260508093453 24 234 4.8 6.4 0.00 0.00 0.00 27 989.8
20260508092910 23 230 3.2 6.4 0.00 0.00 0.00 29 989.8
20260508092630 23 211 1.6 6.4 0.00 0.00 0.00 29 989.9
20260508092433 23 251 4.8 6.4 0.00 0.00 0.00 30 989.9
20260508092259 23 236 3.2 8.0 0.00 0.00 0.00 30 989.8
20260508092036 22 349 1.6 8.0 0.00 0.00 0.00 31 989.9
20260508091821 22 132 8.0 8.0 0.00 0.00 0.00 31 990.0
20260508091710 22 148 1.6 6.4 0.00 0.00 0.00 32 989.9
20260508091417 22 203 4.8 6.4 0.00 0.00 0.00 33 990.0
20260508091223 22 213 6.4 9.7 0.00 0.00 0.00 34 990.1
20260508090829 21 151 1.6 11.3 0.00 0.00 0.00 35 990.0
20260508090615 21 142 6.4 6.4 0.00 0.00 0.00 35 990.0
20260508090424 21 216 6.4 6.4 0.00 0.00 0.00 35 989.9
20260508090003 21 168 4.8 11.3 0.00 0.00 0.00 36 990.1
20260508085753 21 153 3.2 11.3 0.00 0.00 0.00 36 990.0
20260508085613 21 133 3.2 11.3 0.00 0.00 0.00 35 990.0
20260508085347 21 149 4.8 8.0 0.00 0.00 0.00 35 990.1
20260508085151 21 153 4.8 6.4 0.00 0.00 0.00 35 990.0
20260508084939 21 195 1.6 6.4 0.00 0.00 0.00 35 990.0
20260508084744 21 324 1.6 4.8 0.00 0.00 0.00 35 990.0
20260508084533 21 256 0.0 4.8 0.00 0.00 0.00 35 990.1
20260508083924 21 202 1.6 4.8 0.00 0.00 0.00 36 990.1
20260508083723 21 207 1.6 4.8 0.00 0.00 0.00 36 990.0
20260508083524 21 122 0.0 4.8 0.00 0.00 0.00 36 990.1
20260508082306 21 215 1.6 3.2 0.00 0.00 0.00 37 990.0
20260508082051 21 251 0.0 3.2 0.00 0.00 0.00 38 989.9
20260508081859 21 258 1.6 3.2 0.00 0.00 0.00 38 989.8
20260508081255 21 270 0.0 1.6 0.00 0.00 0.00 38 989.9
20260508081053 21 225 1.6 1.6 0.00 0.00 0.00 39 989.9
20260508080837 21 221 1.6 1.6 0.00 0.00 0.00 39 989.9
20260508080636 20 225 0.0 1.6 0.00 0.00 0.00 40 989.9
20260508080429 20 179 0.0 1.6 0.00 0.00 0.00 40 989.8
20260508080019 20 160 0.0 1.6 0.00 0.00 0.00 42 989.8
20260508075837 20 135 0.0 1.6 0.00 0.00 0.00 42 989.9
20260508075610 19 135 0.0 1.6 0.00 0.00 0.00 42 989.8
20260508075418 19 135 1.6 1.6 0.00 0.00 0.00 42 989.8
20260508075018 20 135 0.0 1.6 0.00 0.00 0.00 41 989.8
20260508074823 20 166 1.6 1.6 0.00 0.00 0.00 41 989.8
20260508074632 20 138 0.0 1.6 0.00 0.00 0.00 41 989.8
20260508074402 20 111 0.0 1.6 0.00 0.00 0.00 41 989.7
20260508074156 20 145 1.6 1.6 0.00 0.00 0.00 41 989.7
20260508073958 19 100 0.0 1.6 0.00 0.00 0.00 42 989.7
20260508073828 19 126 0.0 1.6 0.00 0.00 0.00 42 989.7
20260508073538 19 117 0.0 4.8 0.00 0.00 0.00 42 989.7
20260508073400 19 146 1.6 4.8 0.00 0.00 0.00 42 989.7
20260508073133 19 153 3.2 4.8 0.00 0.00 0.00 42 989.7
20260508072938 19 148 3.2 3.2 0.00 0.00 0.00 42 989.8
20260508072757 19 135 0.0 1.6 0.00 0.00 0.00 43 989.8
20260508072318 19 125 0.0 1.6 0.00 0.00 0.00 44 989.7
20260508071919 18 90 0.0 3.2 0.00 0.00 0.00 44 989.6
20260508071716 18 159 1.6 3.2 0.00 0.00 0.00 44 989.6
20260508071538 18 137 1.6 3.2 0.00 0.00 0.00 44 989.6
20260508071311 18 144 1.6 3.2 0.00 0.00 0.00 44 989.6
20260508071106 19 134 3.2 3.2 0.00 0.00 0.00 43 989.6
20260508070918 19 219 0.0 1.6 0.00 0.00 0.00 43 989.6
20260508070247 18 217 0.0 1.6 0.00 0.00 0.00 44 989.5
20260508070051 18 225 0.0 1.6 0.00 0.00 0.00 44 989.6
20260508065847 18 227 0.0 1.6 0.00 0.00 0.00 44 989.4
20260508065653 18 225 0.0 1.6 0.00 0.00 0.00 44 989.4
20260508065433 18 180 0.0 1.6 0.00 0.00 0.00 44 989.3
20260508065236 18 135 0.0 1.6 0.00 0.00 0.00 44 989.3
20260508065035 18 115 0.0 0.0 0.00 0.00 0.00 44 989.3
20260508064833 18 315 0.0 1.6 0.00 0.00 0.00 44 989.3
20260508064621 18 315 0.0 1.6 0.00 0.00 0.00 44 989.3
20260508064418 18 315 0.0 1.6 0.00 0.00 0.00 45 989.2
20260508064022 18 315 0.0 1.6 0.00 0.00 0.00 45 989.2
20260508063808 18 322 0.0 1.6 0.00 0.00 0.00 45 989.2
20260508063605 18 0 1.6 1.6 0.00 0.00 0.00 45 989.1
20260508063409 18 0 1.6 1.6 0.00 0.00 0.00 45 989.1
20260508063226 17 270 0.0 1.6 0.00 0.00 0.00 45 989.1
20260508063023 17 300 1.6 1.6 0.00 0.00 0.00 45 989.1
20260508062802 17 90 0.0 1.6 0.00 0.00 0.00 46 989.2
20260508062556 17 89 0.0 0.0 0.00 0.00 0.00 46 989.2
20260508062422 17 156 0.0 1.6 0.00 0.00 0.00 46 989.2
20260508062158 17 135 0.0 1.6 0.00 0.00 0.00 46 989.3
20260508061957 17 180 0.0 1.6 0.00 0.00 0.00 45 989.3
20260508061747 17 193 0.0 1.6 0.00 0.00 0.00 46 989.3
20260508061545 17 225 0.0 1.6 0.00 0.00 0.00 46 989.2
20260508061335 17 238 0.0 1.6 0.00 0.00 0.00 46 989.3
20260508060931 17 253 0.0 1.6 0.00 0.00 0.00 46 989.2
20260508060343 17 86 0.0 3.2 0.00 0.00 0.00 46 988.8
20260508060119 17 289 3.2 3.2 0.00 0.00 0.00 46 988.8
20260508055954 17 270 3.2 3.2 0.00 0.00 0.00 46 988.9
20260508055527 17 0 0.0 1.6 0.00 0.00 0.00 45 989.0
20260508055311 17 0 0.0 1.6 0.00 0.00 0.00 46 989.1
20260508055131 17 336 1.6 1.6 0.00 0.00 0.00 46 988.9
20260508054907 17 270 1.6 1.6 0.00 0.00 0.00 46 988.9
20260508054727 17 90 0.0 1.6 0.00 0.00 0.00 46 989.0
20260508054523 17 283 1.6 1.6 0.00 0.00 0.00 46 989.0
20260508054301 17 89 0.0 1.6 0.00 0.00 0.00 46 989.0
20260508054054 17 89 0.0 0.0 0.00 0.00 0.00 46 988.9
20260508053306 17 270 0.0 1.6 0.00 0.00 0.00 45 988.8
20260508053059 17 270 0.0 1.6 0.00 0.00 0.00 45 988.9
20260508052827 17 302 0.0 1.6 0.00 0.00 0.00 45 988.8
20260508052656 17 327 0.0 1.6 0.00 0.00 0.00 45 988.8
20260508052241 17 315 0.0 1.6 0.00 0.00 0.00 44 988.8
20260508052037 17 0 1.6 1.6 0.00 0.00 0.00 44 988.9
20260508051839 17 0 1.6 1.6 0.00 0.00 0.00 44 988.9
20260508051639 17 0 0.0 1.6 0.00 0.00 0.00 45 988.8
20260508051213 17 0 0.0 0.0 0.00 0.00 0.00 45 988.8
20260508050821 17 0 0.0 1.6 0.00 0.00 0.00 45 988.9
20260508050625 17 0 1.6 1.6 0.00 0.00 0.00 45 988.9
20260508050354 17 270 0.0 1.6 0.00 0.00 0.00 45 988.8
20260508050207 17 90 0.0 1.6 0.00 0.00 0.00 45 988.7
20260508045943 17 89 1.6 1.6 0.00 0.00 0.00 44 988.7
20260508045751 17 270 1.6 1.6 0.00 0.00 0.00 44 988.7
20260508045348 18 348 1.6 1.6 0.00 0.00 0.00 44 988.7
20260508045124 18 0 0.0 1.6 0.00 0.00 0.00 44 988.7
20260508044716 18 0 1.6 1.6 0.00 0.00 0.00 44 988.7
20260508044536 18 0 1.6 1.6 0.00 0.00 0.00 44 988.7
20260508044317 18 0 0.0 1.6 0.00 0.00 0.00 44 988.7
20260508044121 18 315 0.0 1.6 0.00 0.00 0.00 44 988.7
20260508043912 18 315 0.0 1.6 0.00 0.00 0.00 43 988.6
20260508043716 18 0 0.0 1.6 0.00 0.00 0.00 43 988.6
20260508043059 18 348 1.6 1.6 0.00 0.00 0.00 43 988.6
20260508042904 18 354 1.6 1.6 0.00 0.00 0.00 43 988.6
20260508042649 18 135 0.0 0.0 0.00 0.00 0.00 44 988.6
20260508042450 18 225 0.0 1.6 0.00 0.00 0.00 44 988.6
20260508042248 18 225 0.0 1.6 0.00 0.00 0.00 44 988.6
20260508042051 18 225 0.0 0.0 0.00 0.00 0.00 44 988.7
20260508041839 18 174 0.0 0.0 0.00 0.00 0.00 44 988.7
20260508041231 18 180 0.0 1.6 0.00 0.00 0.00 44 988.6
20260508041038 18 180 0.0 1.6 0.00 0.00 0.00 44 988.6
20260508040837 18 135 0.0 1.6 0.00 0.00 0.00 44 988.7
20260508040618 18 135 1.6 1.6 0.00 0.00 0.00 44 988.7
20260508040436 18 141 0.0 0.0 0.00 0.00 0.00 44 988.6
20260508040208 18 135 0.0 0.0 0.00 0.00 0.00 43 988.7
20260508040013 18 180 0.0 0.0 0.00 0.00 0.00 44 988.5
20260508035621 18 135 0.0 1.6 0.00 0.00 0.00 44 988.4
20260508035153 18 135 1.6 1.6 0.00 0.00 0.00 44 988.5
20260508034956 18 133 0.0 1.6 0.00 0.00 0.00 44 988.5
20260508034753 18 126 0.0 0.0 0.00 0.00 0.00 44 988.5
20260508034548 18 195 0.0 0.0 0.00 0.00 0.00 43 988.5
20260508034418 18 180 0.0 0.0 0.00 0.00 0.00 44 988.5
20260508034138 18 135 0.0 1.6 0.00 0.00 0.00 44 988.5
20260508033740 18 225 0.0 1.6 0.00 0.00 0.00 44 988.7
20260508033546 18 225 0.0 1.6 0.00 0.00 0.00 44 988.6
20260508033332 18 225 0.0 1.6 0.00 0.00 0.00 44 988.6
20260508033138 18 135 0.0 3.2 0.00 0.00 0.00 45 988.6
20260508032728 18 135 1.6 3.2 0.00 0.00 0.00 45 988.5
20260508032527 18 135 1.6 1.6 0.00 0.00 0.00 43 988.5
20260508032322 19 142 0.0 1.6 0.00 0.00 0.00 42 988.5
20260508032106 19 225 0.0 1.6 0.00 0.00 0.00 42 988.5
20260508031937 19 180 0.0 1.6 0.00 0.00 0.00 42 988.6
20260508031657 19 225 0.0 0.0 0.00 0.00 0.00 42 988.5
20260508031057 19 144 0.0 0.0 0.00 0.00 0.00 42 988.5
20260508030844 19 180 0.0 0.0 0.00 0.00 0.00 42 988.5
20260508030709 19 168 0.0 0.0 0.00 0.00 0.00 42 988.5
20260508030437 19 225 0.0 0.0 0.00 0.00 0.00 42 988.5
20260508030251 19 225 0.0 0.0 0.00 0.00 0.00 42 988.5
20260508030030 19 225 0.0 0.0 0.00 0.00 0.00 42 988.6
20260508025841 19 180 0.0 0.0 0.00 0.00 0.00 42 988.6
20260508025625 19 270 0.0 0.0 0.00 0.00 0.00 42 988.6
20260508025220 19 225 0.0 0.0 0.00 0.00 0.00 42 988.6
20260508025025 19 135 0.0 1.6 0.00 0.00 0.00 43 988.6
20260508024829 18 135 0.0 1.6 0.00 0.00 0.00 43 988.6
20260508024631 18 135 1.6 1.6 0.00 0.00 0.00 43 988.7
20260508024413 19 101 0.0 1.6 0.00 0.00 0.00 42 988.8
20260508024222 19 212 1.6 1.6 0.00 0.00 0.00 42 988.6
20260508024020 18 225 0.0 1.6 0.00 0.00 0.00 42 988.6
20260508023834 18 225 0.0 1.6 0.00 0.00 0.00 43 988.7
20260508023355 18 135 0.0 3.2 0.00 0.00 0.00 43 988.7
20260508023000 19 135 1.6 3.2 0.00 0.00 0.00 43 988.7
20260508022555 19 180 0.0 3.2 0.00 0.00 0.00 42 988.7
20260508022335 19 135 1.6 3.2 0.00 0.00 0.00 42 988.7
20260508022158 19 138 1.6 1.6 0.00 0.00 0.00 42 988.7
20260508021934 19 135 0.0 1.6 0.00 0.00 0.00 42 988.8
20260508021116 19 135 0.0 1.6 0.00 0.00 0.00 42 988.9
20260508020930 19 225 0.0 1.6 0.00 0.00 0.00 42 988.8
20260508020714 19 141 1.6 1.6 0.00 0.00 0.00 41 988.9
20260508020537 19 225 1.6 1.6 0.00 0.00 0.00 42 988.9
20260508020113 19 135 0.0 0.0 0.00 0.00 0.00 42 988.9
20260508015921 19 135 0.0 0.0 0.00 0.00 0.00 42 988.9
20260508015512 19 180 0.0 1.6 0.00 0.00 0.00 42 988.9
20260508015050 19 135 1.6 1.6 0.00 0.00 0.00 43 988.9
20260508014856 19 135 1.6 1.6 0.00 0.00 0.00 42 988.9
20260508014643 19 121 0.0 0.0 0.00 0.00 0.00 41 989.0
20260508014450 19 225 0.0 0.0 0.00 0.00 0.00 41 989.0
20260508013706 19 202 1.6 3.2 0.00 0.00 0.00 41 989.1
20260508013425 19 227 1.6 3.2 0.00 0.00 0.00 41 989.1
20260508013226 19 225 0.0 1.6 0.00 0.00 0.00 41 989.1
20260508013033 19 216 1.6 1.6 0.00 0.00 0.00 41 988.9
20260508012814 19 270 0.0 0.0 0.00 0.00 0.00 41 988.8
20260508012611 19 135 0.0 0.0 0.00 0.00 0.00 41 989.0
20260508012457 19 180 0.0 3.2 0.00 0.00 0.00 42 989.1
20260508012159 19 204 0.0 3.2 0.00 0.00 0.00 42 989.2
20260508012011 19 180 1.6 3.2 0.00 0.00 0.00 42 989.2
20260508011836 19 119 0.0 3.2 0.00 0.00 0.00 41 989.1
20260508011559 19 180 0.0 1.6 0.00 0.00 0.00 41 989.1
20260508011202 19 225 1.6 1.6 0.00 0.00 0.00 40 989.2
20260508010939 19 225 0.0 0.0 0.00 0.00 0.00 40 989.2
20260508010749 19 225 0.0 0.0 0.00 0.00 0.00 41 989.1
20260508010533 19 180 0.0 0.0 0.00 0.00 0.00 41 989.2
20260508010357 19 180 0.0 0.0 0.00 0.00 0.00 41 989.2
20260508010134 19 149 0.0 0.0 0.00 0.00 0.00 41 989.2
20260508005517 19 135 0.0 0.0 0.00 0.00 0.00 41 989.1
20260508005314 19 315 0.0 0.0 0.00 0.00 0.00 41 989.2
20260508005132 19 315 0.0 0.0 0.00 0.00 0.00 41 989.2
20260508004907 19 315 0.0 0.0 0.00 0.00 0.00 41 989.1
20260508004714 19 315 0.0 0.0 0.00 0.00 0.00 41 989.1
20260508004520 19 315 0.0 0.0 0.00 0.00 0.00 41 989.0
20260508004307 19 315 0.0 1.6 0.00 0.00 0.00 41 989.1
20260508004056 19 315 0.0 1.6 0.00 0.00 0.00 41 989.2
20260508003910 19 315 0.0 1.6 0.00 0.00 0.00 41 989.1
20260508003656 19 315 0.0 1.6 0.00 0.00 0.00 40 989.1
20260508003501 19 350 0.0 1.6 0.00 0.00 0.00 40 989.0
20260508003301 19 0 0.0 1.6 0.00 0.00 0.00 40 989.1
20260508003054 19 0 0.0 1.6 0.00 0.00 0.00 40 989.2
20260508002837 19 315 0.0 1.6 0.00 0.00 0.00 40 989.3
20260508002649 19 315 0.0 1.6 0.00 0.00 0.00 40 989.2
20260508002439 19 315 0.0 1.6 0.00 0.00 0.00 40 989.2
20260508002239 19 270 0.0 1.6 0.00 0.00 0.00 40 989.2
20260508002042 19 270 0.0 1.6 0.00 0.00 0.00 40 989.2
20260508001836 19 270 1.6 1.6 0.00 0.00 0.00 39 989.4
20260508001622 19 270 0.0 1.6 0.00 0.00 0.00 40 989.3
20260508001442 19 270 0.0 1.6 0.00 0.00 0.00 39 989.4
20260508001241 19 270 0.0 1.6 0.00 0.00 0.00 39 989.3
20260508001017 19 315 0.0 1.6 0.00 0.00 0.00 39 989.3
20260508000830 20 0 0.0 1.6 0.00 0.00 0.00 39 989.3
20260508000623 20 0 0.0 1.6 0.00 0.00 0.00 39 989.3
20260508000413 20 0 0.0 1.6 0.00 0.00 0.00 39 989.4
20260507235822 20 315 0.0 1.6 0.00 0.00 0.00 38 989.3
20260507235557 20 319 1.6 1.6 0.00 0.00 0.00 38 989.3
20260507235358 20 0 0.0 0.0 0.00 0.00 0.00 38 989.3
20260507235143 20 0 0.0 0.0 0.00 0.00 0.00 39 989.4
20260507234943 20 0 0.0 0.0 0.00 0.00 0.00 39 989.5
20260507234749 20 0 0.0 0.0 0.00 0.00 0.00 38 989.5
20260507234537 20 0 0.0 0.0 0.00 0.00 0.00 38 989.4
20260507234325 20 0 0.0 0.0 0.00 0.00 0.00 38 989.4
20260507234143 20 0 0.0 0.0 0.00 0.00 0.00 38 989.4
20260507233921 20 0 0.0 1.6 0.00 0.00 0.00 38 989.5
20260507233729 20 315 0.0 1.6 0.00 0.00 0.00 38 989.5
20260507233324 20 0 1.6 1.6 0.00 0.00 0.00 37 989.6
20260507233111 20 0 0.0 1.6 0.00 0.00 0.00 37 989.5
20260507232926 20 0 0.0 1.6 0.00 0.00 0.00 37 989.5
20260507232707 20 0 0.0 1.6 0.00 0.00 0.00 37 989.5
20260507232512 20 0 0.0 1.6 0.00 0.00 0.00 37 989.6
20260507232323 20 122 0.0 1.6 0.00 0.00 0.00 37 989.6
20260507232115 20 270 0.0 1.6 0.00 0.00 0.00 37 989.6
20260507231847 20 270 0.0 1.6 0.00 0.00 0.00 37 989.7
20260507231724 20 270 0.0 1.6 0.00 0.00 0.00 37 989.7
20260507231442 20 90 0.0 1.6 0.00 0.00 0.00 37 989.7
20260507231246 20 315 0.0 0.0 0.00 0.00 0.00 37 989.7
20260507231046 20 315 0.0 0.0 0.00 0.00 0.00 37 989.7
20260507230640 20 315 0.0 1.6 0.00 0.00 0.00 37 989.6
20260507230458 20 315 0.0 3.2 0.00 0.00 0.00 37 989.6
20260507230034 20 357 3.2 3.2 0.00 0.00 0.00 37 989.5
20260507225823 21 342 1.6 1.6 0.00 0.00 0.00 36 989.6
20260507225628 21 338 1.6 1.6 0.00 0.00 0.00 36 989.5
20260507225415 21 0 0.0 1.6 0.00 0.00 0.00 36 989.6
20260507225241 21 0 1.6 1.6 0.00 0.00 0.00 36 989.8
20260507224816 21 315 0.0 1.6 0.00 0.00 0.00 36 989.9
20260507224558 21 0 0.0 1.6 0.00 0.00 0.00 36 989.9
20260507224401 21 315 0.0 0.0 0.00 0.00 0.00 36 989.9
20260507224003 21 315 0.0 1.6 0.00 0.00 0.00 36 990.0
20260507223743 21 341 1.6 1.6 0.00 0.00 0.00 36 990.1
20260507223551 21 315 0.0 1.6 0.00 0.00 0.00 36 990.1
20260507223345 21 0 1.6 1.6 0.00 0.00 0.00 36 990.0
20260507223146 20 315 0.0 1.6 0.00 0.00 0.00 36 990.0
20260507222938 20 0 0.0 1.6 0.00 0.00 0.00 36 990.0
20260507222736 20 315 0.0 1.6 0.00 0.00 0.00 36 990.0
20260507222551 21 315 1.6 3.2 0.00 0.00 0.00 36 990.0
20260507222337 21 277 0.0 3.2 0.00 0.00 0.00 36 990.0
20260507222138 21 270 0.0 3.2 0.00 0.00 0.00 36 990.0
20260507221713 21 270 3.2 3.2 0.00 0.00 0.00 36 990.1
20260507221536 21 336 1.6 1.6 0.00 0.00 0.00 36 990.1
20260507221135 21 315 0.0 1.6 0.00 0.00 0.00 36 990.0
20260507220906 21 351 1.6 1.6 0.00 0.00 0.00 36 990.0
20260507220714 21 334 1.6 1.6 0.00 0.00 0.00 36 990.1
20260507220506 21 270 1.6 3.2 0.00 0.00 0.00 36 990.2
20260507220302 21 270 0.0 3.2 0.00 0.00 0.00 36 990.2
20260507220049 21 294 1.6 3.2 0.00 0.00 0.00 36 990.1
20260507215904 20 258 0.0 1.6 0.00 0.00 0.00 36 990.2
20260507215653 20 281 1.6 4.8 0.00 0.00 0.00 36 990.1
20260507215446 20 270 1.6 4.8 0.00 0.00 0.00 36 990.1
20260507215238 20 315 0.0 4.8 0.00 0.00 0.00 36 990.1
20260507215044 20 301 1.6 1.6 0.00 0.00 0.00 36 990.2
20260507214834 20 308 0.0 1.6 0.00 0.00 0.00 36 990.2
20260507214421 20 315 1.6 1.6 0.00 0.00 0.00 36 990.2
20260507214239 20 315 0.0 1.6 0.00 0.00 0.00 36 990.1
20260507213827 20 315 0.0 3.2 0.00 0.00 0.00 36 990.2
20260507213628 20 315 0.0 3.2 0.00 0.00 0.00 36 990.2
20260507213443 20 0 1.6 3.2 0.00 0.00 0.00 36 990.2
20260507213212 20 315 0.0 1.6 0.00 0.00 0.00 36 990.2
20260507213032 20 315 0.0 1.6 0.00 0.00 0.00 35 990.2
20260507212819 21 315 0.0 1.6 0.00 0.00 0.00 35 990.2
20260507212647 21 0 1.6 1.6 0.00 0.00 0.00 35 990.1
20260507212221 21 315 0.0 1.6 0.00 0.00 0.00 35 990.4
20260507211952 21 315 0.0 1.6 0.00 0.00 0.00 35 990.3
20260507211808 21 274 0.0 1.6 0.00 0.00 0.00 35 990.3
20260507211626 21 343 1.6 1.6 0.00 0.00 0.00 35 990.2
20260507211355 21 315 0.0 1.6 0.00 0.00 0.00 35 990.3
20260507211018 21 315 0.0 1.6 0.00 0.00 0.00 35 990.4
20260507210725 21 315 0.0 1.6 0.00 0.00 0.00 35 990.3
20260507210548 21 347 1.6 1.6 0.00 0.00 0.00 35 990.3
20260507210326 21 0 0.0 1.6 0.00 0.00 0.00 35 990.3
20260507205935 21 315 0.0 1.6 0.00 0.00 0.00 35 990.3
20260507205719 21 315 1.6 3.2 0.00 0.00 0.00 34 990.3
20260507204913 21 270 1.6 1.6 0.00 0.00 0.00 34 990.2
20260507204659 21 0 1.6 1.6 0.00 0.00 0.00 34 990.2
20260507204456 21 0 0.0 1.6 0.00 0.00 0.00 34 990.2
20260507204253 21 318 1.6 1.6 0.00 0.00 0.00 34 990.1
20260507203839 21 315 1.6 1.6 0.00 0.00 0.00 34 990.0
20260507203709 21 315 1.6 1.6 0.00 0.00 0.00 34 990.0
20260507203440 21 315 1.6 3.2 0.00 0.00 0.00 33 989.9
20260507203240 21 311 1.6 3.2 0.00 0.00 0.00 33 989.8
20260507203129 21 315 1.6 3.2 0.00 0.00 0.00 33 989.8
20260507202839 21 287 0.0 3.2 0.00 0.00 0.00 33 989.7
20260507202621 21 342 1.6 1.6 0.00 0.00 0.00 33 989.8
20260507202443 21 332 0.0 1.6 0.00 0.00 0.00 33 989.7
20260507201834 21 315 1.6 1.6 0.00 0.00 0.00 33 989.7
20260507201618 21 315 1.6 3.2 0.00 0.00 0.00 33 989.7
20260507201408 21 0 1.6 3.2 0.00 0.00 0.00 33 989.7
20260507201051 21 315 0.0 3.2 0.00 0.00 0.00 33 989.7
20260507200802 21 333 0.0 4.8 0.00 0.00 0.00 33 989.6
20260507200610 21 346 1.6 4.8 0.00 0.00 0.00 33 989.6
20260507200414 21 313 3.2 3.2 0.00 0.00 0.00 33 989.5
20260507200149 21 326 1.6 3.2 0.00 0.00 0.00 33 989.4
20260507195945 21 320 1.6 3.2 0.00 0.00 0.00 33 989.4
20260507195743 21 313 1.6 4.8 0.00 0.00 0.00 33 989.4
20260507195606 21 282 3.2 6.4 0.00 0.00 0.00 33 989.5
20260507195342 22 355 3.2 6.4 0.00 0.00 0.00 33 989.5
20260507195143 22 313 4.8 4.8 0.00 0.00 0.00 33 989.5
20260507194732 22 325 1.6 3.2 0.00 0.00 0.00 33 989.5
20260507194330 22 317 1.6 8.0 0.00 0.00 0.00 32 989.4
20260507193942 22 305 3.2 6.4 0.00 0.00 0.00 32 989.3
20260507193105 22 338 3.2 6.4 0.00 0.00 0.00 32 989.3
20260507192717 22 315 1.6 4.8 0.00 0.00 0.00 32 989.3
20260507192452 22 312 1.6 4.8 0.00 0.00 0.00 32 989.2
20260507192257 22 318 3.2 4.8 0.00 0.00 0.00 32 989.2
20260507192137 22 332 3.2 6.4 0.00 0.00 0.00 32 989.2
20260507191844 22 337 3.2 9.7 0.00 0.00 0.00 32 989.2
20260507191232 22 312 3.2 11.3 0.00 0.00 0.00 32 989.1
20260507191044 22 343 8.0 9.7 0.00 0.00 0.00 32 989.1
20260507190850 22 312 4.8 12.9 0.00 0.00 0.00 31 989.1
20260507190632 22 344 6.4 12.9 0.00 0.00 0.00 31 989.0
20260507190417 22 289 9.7 12.9 0.00 0.00 0.00 31 989.1
20260507190220 22 324 6.4 9.7 0.00 0.00 0.00 31 989.1
20260507190033 22 309 8.0 9.7 0.00 0.00 0.00 31 989.0
20260507185844 22 325 6.4 9.7 0.00 0.00 0.00 31 989.1
20260507185603 22 336 4.8 8.0 0.00 0.00 0.00 30 989.2
20260507185410 22 316 3.2 6.4 0.00 0.00 0.00 30 989.2
20260507185201 22 337 4.8 6.4 0.00 0.00 0.00 30 989.1
20260507185025 22 303 1.6 8.0 0.00 0.00 0.00 30 989.0
20260507184814 22 317 4.8 9.7 0.00 0.00 0.00 30 989.0
20260507184159 23 244 1.6 9.7 0.00 0.00 0.00 30 989.0
20260507183805 23 295 1.6 12.9 0.00 0.00 0.00 30 988.9
20260507183551 23 271 4.8 16.1 0.00 0.00 0.00 30 988.8
20260507183341 23 323 6.4 16.1 0.00 0.00 0.00 29 988.8
20260507183130 23 295 8.0 16.1 0.00 0.00 0.00 29 988.8
20260507182715 23 286 4.8 16.1 0.00 0.00 0.00 29 988.7
20260507182528 23 268 3.2 16.1 0.00 0.00 0.00 28 988.8
20260507182122 23 313 3.2 12.9 0.00 0.00 0.00 28 988.6
20260507181907 23 310 9.7 12.9 0.00 0.00 0.00 28 988.6
20260507181733 23 330 3.2 9.7 0.00 0.00 0.00 27 988.7
20260507181504 23 298 6.4 16.1 0.00 0.00 0.00 27 988.6
20260507181108 23 261 11.3 17.7 0.00 0.00 0.00 27 988.5
20260507180902 24 331 4.8 17.7 0.00 0.00 0.00 27 988.5
20260507180506 24 289 3.2 12.9 0.00 0.00 0.00 26 988.3
20260507180242 24 263 8.0 12.9 0.00 0.00 0.00 27 988.4
20260507180050 25 278 4.8 14.5 0.00 0.00 0.00 26 988.3
20260507175637 25 106 6.4 9.7 0.00 0.00 0.00 26 988.1
20260507175432 25 312 1.6 14.5 0.00 0.00 0.00 25 988.0
20260507175239 25 274 4.8 14.5 0.00 0.00 0.00 25 988.0
20260507174825 25 309 6.4 12.9 0.00 0.00 0.00 24 988.1
20260507174618 25 304 6.4 12.9 0.00 0.00 0.00 24 988.0
20260507174217 25 301 11.3 14.5 0.00 0.00 0.00 24 987.9
20260507174014 25 266 8.0 9.7 0.00 0.00 0.00 24 988.0
20260507173807 25 326 4.8 9.7 0.00 0.00 0.00 24 987.8
20260507173611 25 319 6.4 11.3 0.00 0.00 0.00 24 987.8
20260507173401 25 326 4.8 11.3 0.00 0.00 0.00 24 987.9
20260507173225 25 286 11.3 12.9 0.00 0.00 0.00 23 988.0
20260507173004 25 303 6.4 12.9 0.00 0.00 0.00 23 988.0
20260507172744 26 320 12.9 12.9 0.00 0.00 0.00 23 987.9
20260507172602 26 320 11.3 11.3 0.00 0.00 0.00 22 988.0
20260507172141 26 308 8.0 9.7 0.00 0.00 0.00 22 987.9
20260507172027 26 343 6.4 11.3 0.00 0.00 0.00 22 987.9
20260507171732 26 333 4.8 11.3 0.00 0.00 0.00 22 987.8
20260507171539 26 310 8.0 11.3 0.00 0.00 0.00 21 987.8
20260507171348 26 337 9.7 9.7 0.00 0.00 0.00 21 987.7
20260507171126 26 346 6.4 9.7 0.00 0.00 0.00 21 987.7
20260507170929 26 319 8.0 8.0 0.00 0.00 0.00 21 987.7
20260507170802 26 326 6.4 6.4 0.00 0.00 0.00 21 987.8
20260507170516 26 320 4.8 8.0 0.00 0.00 0.00 21 987.8
20260507170321 26 241 1.6 9.7 0.00 0.00 0.00 21 987.8
20260507170105 26 279 1.6 9.7 0.00 0.00 0.00 21 987.8
20260507165948 26 283 6.4 8.0 0.00 0.00 0.00 21 987.8
20260507165507 26 310 3.2 8.0 0.00 0.00 0.00 20 987.8
20260507165256 26 345 4.8 11.3 0.00 0.00 0.00 20 987.7
20260507164843 27 318 3.2 11.3 0.00 0.00 0.00 18 987.8
20260507164710 27 305 9.7 11.3 0.00 0.00 0.00 18 987.7
20260507164439 27 333 1.6 9.7 0.00 0.00 0.00 18 987.8
20260507164034 27 281 4.8 9.7 0.00 0.00 0.00 18 987.8
20260507163842 27 255 8.0 12.9 0.00 0.00 0.00 18 987.7
20260507163645 27 295 4.8 12.9 0.00 0.00 0.00 17 987.7
20260507163457 27 269 12.9 12.9 0.00 0.00 0.00 17 987.7
20260507163218 27 275 8.0 11.3 0.00 0.00 0.00 17 987.6
20260507162857 27 258 6.4 9.7 0.00 0.00 0.00 17 987.7
20260507162623 27 255 6.4 6.4 0.00 0.00 0.00 16 987.7
20260507162416 28 268 6.4 6.4 0.00 0.00 0.00 16 987.7
20260507162245 28 256 0.0 9.7 0.00 0.00 0.00 15 987.7
20260507162000 28 229 1.6 9.7 0.00 0.00 0.00 15 987.6
20260507161410 28 271 8.0 8.0 0.00 0.00 0.00 14 987.6
20260507161158 29 288 3.2 8.0 0.00 0.00 0.00 13 987.5
20260507161020 29 304 3.2 8.0 0.00 0.00 0.00 14 987.5
20260507160552 29 256 1.6 6.4 0.00 0.00 0.00 14 987.6
20260507160346 29 303 1.6 9.7 0.00 0.00 0.00 14 987.6
20260507160146 28 230 3.2 14.5 0.00 0.00 0.00 14 987.6
20260507155928 28 272 3.2 14.5 0.00 0.00 0.00 14 987.7
20260507155528 28 101 1.6 4.8 0.00 0.00 0.00 15 987.5
20260507155343 28 303 1.6 6.4 0.00 0.00 0.00 16 987.7
20260507155121 27 112 0.0 12.9 0.00 0.00 0.00 16 987.7
20260507154937 27 273 4.8 12.9 0.00 0.00 0.00 15 987.7
20260507154715 28 282 1.6 8.0 0.00 0.00 0.00 15 987.7
20260507153859 28 314 1.6 6.4 0.00 0.00 0.00 15 987.7
20260507153707 28 246 1.6 3.2 0.00 0.00 0.00 15 987.7
20260507153456 28 90 0.0 8.0 0.00 0.00 0.00 14 987.8
20260507153300 28 286 3.2 11.3 0.00 0.00 0.00 15 987.8
20260507152855 28 242 6.4 12.9 0.00 0.00 0.00 14 987.9
20260507152636 28 253 6.4 12.9 0.00 0.00 0.00 15 987.9
20260507152507 28 285 9.7 12.9 0.00 0.00 0.00 15 987.9
20260507152237 28 293 3.2 9.7 0.00 0.00 0.00 16 987.8
20260507152041 27 304 3.2 9.7 0.00 0.00 0.00 16 987.8
20260507151913 28 336 6.4 9.7 0.00 0.00 0.00 15 987.9
20260507151634 28 318 6.4 9.7 0.00 0.00 0.00 15 987.8
20260507151017 28 193 1.6 8.0 0.00 0.00 0.00 14 988.0
20260507150848 28 300 6.4 8.0 0.00 0.00 0.00 14 988.0
20260507150611 28 0 0.0 6.4 0.00 0.00 0.00 14 988.0
20260507150416 28 230 4.8 14.5 0.00 0.00 0.00 14 987.9
20260507150205 28 265 1.6 14.5 0.00 0.00 0.00 14 987.9
20260507150009 28 290 4.8 14.5 0.00 0.00 0.00 14 988.0
20260507145559 28 304 4.8 9.7 0.00 0.00 0.00 15 988.0
20260507145352 28 250 3.2 9.7 0.00 0.00 0.00 15 988.1
20260507144736 28 256 6.4 8.0 0.00 0.00 0.00 14 988.2
20260507144133 28 306 4.8 9.7 0.00 0.00 0.00 14 988.1
20260507143539 28 308 4.8 11.3 0.00 0.00 0.00 15 988.3
20260507142111 28 259 9.7 11.3 0.00 0.00 0.00 15 988.5
20260507141903 28 292 4.8 9.7 0.00 0.00 0.00 15 988.5
20260507141711 28 237 3.2 9.7 0.00 0.00 0.00 15 988.6
20260507141302 28 298 4.8 11.3 0.00 0.00 0.00 15 988.7
20260507141053 28 264 4.8 14.5 0.00 0.00 0.00 15 988.7
20260507140852 28 265 9.7 14.5 0.00 0.00 0.00 15 988.7
20260507140701 28 245 11.3 11.3 0.00 0.00 0.00 15 988.7
20260507140428 28 238 6.4 8.0 0.00 0.00 0.00 15 988.7
20260507140233 28 258 1.6 9.7 0.00 0.00 0.00 15 988.7
20260507140042 28 232 6.4 9.7 0.00 0.00 0.00 15 988.8
20260507135420 27 229 4.8 8.0 0.00 0.00 0.00 16 988.7
20260507135224 27 255 3.2 9.7 0.00 0.00 0.00 16 988.8
20260507135015 27 243 8.0 9.7 0.00 0.00 0.00 16 988.7
20260507134820 27 240 4.8 9.7 0.00 0.00 0.00 16 988.8
20260507134615 27 234 4.8 6.4 0.00 0.00 0.00 17 988.7
20260507134408 27 346 3.2 9.7 0.00 0.00 0.00 18 988.8
20260507133957 26 310 4.8 9.7 0.00 0.00 0.00 17 988.7
20260507133822 27 307 4.8 11.3 0.00 0.00 0.00 17 988.7
20260507133351 27 311 6.4 14.5 0.00 0.00 0.00 16 988.7
20260507133015 27 220 4.8 4.8 0.00 0.00 0.00 17 988.7
20260507132753 27 201 1.6 4.8 0.00 0.00 0.00 17 988.7
20260507132549 27 141 3.2 4.8 0.00 0.00 0.00 16 988.7
20260507132409 27 189 3.2 6.4 0.00 0.00 0.00 17 988.7
20260507132129 27 274 1.6 8.0 0.00 0.00 0.00 17 988.7
20260507131919 27 306 1.6 8.0 0.00 0.00 0.00 17 988.9
20260507131516 26 342 3.2 6.4 0.00 0.00 0.00 17 988.9
20260507131322 27 275 4.8 11.3 0.00 0.00 0.00 17 989.0
20260507131136 27 331 1.6 12.9 0.00 0.00 0.00 16 988.9
20260507130904 27 313 4.8 12.9 0.00 0.00 0.00 16 989.0
20260507130300 27 240 6.4 8.0 0.00 0.00 0.00 16 989.0
20260507125701 27 232 8.0 8.0 0.00 0.00 0.00 17 989.0
20260507124833 27 225 8.0 8.0 0.00 0.00 0.00 16 989.1
20260507124633 27 284 1.6 9.7 0.00 0.00 0.00 16 989.1
20260507124451 27 229 6.4 9.7 0.00 0.00 0.00 16 989.2
20260507124224 27 237 6.4 9.7 0.00 0.00 0.00 17 989.1
20260507124034 27 108 0.0 11.3 0.00 0.00 0.00 17 989.2
20260507123816 26 262 4.8 11.3 0.00 0.00 0.00 17 989.2
20260507123619 26 270 8.0 8.0 0.00 0.00 0.00 17 989.1
20260507123423 27 344 1.6 8.0 0.00 0.00 0.00 17 989.3
20260507123244 27 248 0.0 9.7 0.00 0.00 0.00 17 989.4
20260507123002 27 279 3.2 9.7 0.00 0.00 0.00 16 989.4
20260507122815 27 301 4.8 8.0 0.00 0.00 0.00 16 989.4
20260507122613 27 262 1.6 8.0 0.00 0.00 0.00 17 989.4
20260507122412 27 267 8.0 8.0 0.00 0.00 0.00 16 989.4
20260507121403 27 297 6.4 12.9 0.00 0.00 0.00 17 989.5
20260507121147 27 134 3.2 6.4 0.00 0.00 0.00 17 989.6
20260507120736 27 217 1.6 8.0 0.00 0.00 0.00 17 989.6
20260507120121 27 230 4.8 9.7 0.00 0.00 0.00 18 989.7
20260507115945 27 243 9.7 9.7 0.00 0.00 0.00 19 989.6
20260507115545 26 199 1.6 9.7 0.00 0.00 0.00 19 989.8
20260507115312 26 218 1.6 9.7 0.00 0.00 0.00 18 989.8
20260507115117 26 200 3.2 9.7 0.00 0.00 0.00 20 989.8
20260507114304 26 243 4.8 4.8 0.00 0.00 0.00 20 989.8
20260507113704 26 295 0.0 6.4 0.00 0.00 0.00 20 989.9
20260507113520 26 319 1.6 8.0 0.00 0.00 0.00 20 989.8
20260507113240 26 300 3.2 9.7 0.00 0.00 0.00 20 989.8
20260507113039 26 285 3.2 9.7 0.00 0.00 0.00 20 989.8
20260507112647 27 275 6.4 9.7 0.00 0.00 0.00 20 989.9
20260507112427 27 309 8.0 8.0 0.00 0.00 0.00 20 989.7
20260507112247 26 279 1.6 6.4 0.00 0.00 0.00 20 989.8
20260507112021 26 251 3.2 4.8 0.00 0.00 0.00 19 989.7
20260507111855 26 270 4.8 6.4 0.00 0.00 0.00 21 989.7
20260507111427 26 279 3.2 11.3 0.00 0.00 0.00 22 989.7
20260507111203 25 208 1.6 11.3 0.00 0.00 0.00 22 989.8
20260507111040 25 230 8.0 9.7 0.00 0.00 0.00 23 989.8
20260507110806 25 259 4.8 8.0 0.00 0.00 0.00 24 989.8
20260507110621 25 253 1.6 8.0 0.00 0.00 0.00 24 989.8
20260507110405 25 260 4.8 8.0 0.00 0.00 0.00 24 989.9
20260507105955 25 309 6.4 9.7 0.00 0.00 0.00 24 989.8
20260507105350 25 326 3.2 14.5 0.00 0.00 0.00 24 989.7
20260507104954 25 311 6.4 11.3 0.00 0.00 0.00 24 989.8
20260507104533 25 147 1.6 9.7 0.00 0.00 0.00 23 989.8
20260507104343 25 289 6.4 11.3 0.00 0.00 0.00 23 989.8
20260507104134 25 333 8.0 11.3 0.00 0.00 0.00 23 989.8
20260507103910 25 298 3.2 9.7 0.00 0.00 0.00 24 989.8
20260507103721 25 269 8.0 9.7 0.00 0.00 0.00 23 989.8
20260507103511 25 321 4.8 14.5 0.00 0.00 0.00 24 989.8
20260507103317 25 222 1.6 14.5 0.00 0.00 0.00 23 989.8
20260507103120 25 290 14.5 14.5 0.00 0.00 0.00 24 989.8
20260507102907 25 255 3.2 9.7 0.00 0.00 0.00 25 989.8
20260507102658 25 297 3.2 9.7 0.00 0.00 0.00 24 989.8
20260507102507 25 310 3.2 9.7 0.00 0.00 0.00 24 989.8
20260507102057 25 223 1.6 4.8 0.00 0.00 0.00 25 989.7
20260507101901 25 252 3.2 4.8 0.00 0.00 0.00 25 989.7
20260507101646 25 237 1.6 8.0 0.00 0.00 0.00 24 989.8
20260507101439 25 234 3.2 11.3 0.00 0.00 0.00 24 989.7
20260507101303 25 315 8.0 11.3 0.00 0.00 0.00 24 989.7